Weather History for KATP - May, 2014

Change the Weather History Date:

Tuesday, May 6, 2014

  Actual Average Record
Temperature  
Mean Temperature 75 °F -  
Max Temperature 77 °F - - ()
Min Temperature 73 °F - - ()
Cooling Degree Days 10    
Growing Degree Days 25 (Base 50)    
Moisture  
Dew Point 66 °F    
Average Humidity 74    
Maximum Humidity 78    
Minimum Humidity 65    
Precipitation  
Precipitation 0.00 in - - ()
Sea Level Pressure  
Sea Level Pressure 29.98 in    
Wind  
Wind Speed 13 mph (ESE)    
Max Wind Speed 21 mph    
Max Gust Speed 17 mph    
Visibility 10 miles    
Events      
T = Trace of Precipitation, MM = Missing Value Source: NWS Daily Summary

Daily Weather History Graph

Daily Weather History Graph

Search for Another Location

Airport or City:

Trip Planner

Search our weather history database for the weather conditions in past years. The results will help you decide how hot, cold, wet, or windy it might be!

Date:

Astronomy

May. 06, 2014 Rise Set
Actual Time 6:17 AM CDT 7:36 PM CDT
Civil Twilight 5:52 AM CDT 8:01 PM CDT
Nautical Twilight 5:23 AM CDT 8:30 PM CDT
Astronomical Twilight 4:52 AM CDT 9:01 PM CDT
Moon 12:27 PM CDT (5/6) 1:00 AM CDT (5/6)
Length of Visible Light 14h 08m
Length of Day
13h 18m
Waxing Crescent, 46% of the Moon is Illuminated
May 6
Waxing Crescent
May 6
First Quarter
May 14
Full
May 21
Last Quarter
May 28
New

Hourly Weather History & Observations

Time (CDT) Temp. Dew Point Humidity Pressure Visibility Wind Dir Wind Speed Gust Speed Precip Events Conditions
12:15 AM 73.4 °F 60.8 °F 65% 30.02 in 10.0 mi ESE 10.4 mph - N/A   Partly Cloudy
12:35 AM 73.4 °F 60.8 °F 65% 30.02 in 10.0 mi ESE 11.5 mph - N/A   Partly Cloudy
12:55 AM 73.4 °F 60.8 °F 65% 30.01 in 10.0 mi SE 11.5 mph - N/A   Partly Cloudy
1:15 AM 73.4 °F 60.8 °F 65% 30.01 in 10.0 mi SE 11.5 mph - N/A   Mostly Cloudy
1:35 AM 73.4 °F 60.8 °F 65% 30.00 in 10.0 mi ESE 11.5 mph - N/A   Overcast
1:55 AM 73.4 °F 60.8 °F 65% 29.99 in 10.0 mi SE 11.5 mph - N/A   Mostly Cloudy
2:15 AM 73.4 °F 60.8 °F 65% 29.98 in 10.0 mi ESE 11.5 mph - N/A   Mostly Cloudy
6:55 AM 73.4 °F 64.4 °F 73% 29.98 in 10.0 mi ESE 12.7 mph - N/A   Clear
7:15 AM 73.4 °F 64.4 °F 73% 29.99 in 10.0 mi ESE 12.7 mph - N/A   Clear
7:35 AM 73.4 °F 64.4 °F 73% 29.99 in 10.0 mi ESE 10.4 mph - N/A   Clear
7:55 AM 73.4 °F 66.2 °F 78% 30.00 in 10.0 mi ESE 12.7 mph - N/A   Partly Cloudy
8:15 AM 73.4 °F 66.2 °F 78% 30.00 in 10.0 mi ESE 10.4 mph - N/A   Partly Cloudy
8:55 AM 73.4 °F 64.4 °F 73% 30.01 in 10.0 mi ESE 10.4 mph - N/A   Partly Cloudy
9:15 AM 73.4 °F 66.2 °F 78% 30.01 in 10.0 mi ESE 11.5 mph - N/A   Mostly Cloudy
9:35 AM 73.4 °F 66.2 °F 78% 30.01 in 10.0 mi ESE 12.7 mph - N/A   Mostly Cloudy
9:55 AM 75.2 °F 66.2 °F 73% 30.02 in 10.0 mi ESE 11.5 mph - N/A   Overcast
10:15 AM 75.2 °F 66.2 °F 73% 30.01 in 10.0 mi ESE 11.5 mph - N/A   Partly Cloudy
10:55 AM 75.2 °F 66.2 °F 73% 30.02 in 10.0 mi ESE 11.5 mph - N/A   Mostly Cloudy
11:15 AM 75.2 °F 68.0 °F 78% 30.02 in 10.0 mi ESE 11.5 mph 17.3 mph N/A   Scattered Clouds
11:35 AM 75.2 °F 66.2 °F 73% 30.02 in 10.0 mi ESE 11.5 mph - N/A   Clear
11:55 AM 75.2 °F 68.0 °F 78% 30.02 in 10.0 mi East 13.8 mph - N/A   Clear
12:15 PM 75.2 °F 68.0 °F 78% 30.01 in 10.0 mi ESE 15.0 mph - N/A   Clear
12:35 PM 75.2 °F 68.0 °F 78% 30.01 in 10.0 mi ESE 13.8 mph - N/A   Clear
12:55 PM 75.2 °F 68.0 °F 78% 30.00 in 10.0 mi ESE 15.0 mph - N/A   Clear
1:15 PM 75.2 °F 66.2 °F 73% 30.00 in 10.0 mi ESE 15.0 mph - N/A   Partly Cloudy
1:35 PM 75.2 °F 66.2 °F 73% 29.99 in 10.0 mi ESE 13.8 mph - N/A   Scattered Clouds
1:55 PM 77.0 °F 66.2 °F 69% 29.99 in 10.0 mi ESE 13.8 mph - N/A   Partly Cloudy
2:15 PM 77.0 °F 68.0 °F 74% 29.99 in 10.0 mi ESE 13.8 mph - N/A   Partly Cloudy
2:35 PM 77.0 °F 68.0 °F 74% 29.98 in 10.0 mi East 13.8 mph - N/A   Partly Cloudy
3:15 PM 75.2 °F 66.2 °F 73% 29.97 in 10.0 mi East 12.7 mph - N/A   Partly Cloudy
3:35 PM 77.0 °F 66.2 °F 69% 29.96 in 10.0 mi East 15.0 mph - N/A   Scattered Clouds
3:55 PM 75.2 °F 68.0 °F 78% 29.96 in 10.0 mi East 15.0 mph - N/A   Mostly Cloudy
4:15 PM 77.0 °F 68.0 °F 74% 29.96 in 10.0 mi East 13.8 mph - N/A   Scattered Clouds
4:35 PM 77.0 °F 66.2 °F 69% 29.96 in 10.0 mi East 13.8 mph - N/A   Mostly Cloudy
4:55 PM 75.2 °F 66.2 °F 73% 29.95 in 10.0 mi ESE 15.0 mph - N/A   Scattered Clouds
5:15 PM 75.2 °F 66.2 °F 73% 29.95 in 10.0 mi ESE 13.8 mph - N/A   Clear
5:35 PM 75.2 °F 68.0 °F 78% 29.95 in 10.0 mi East 13.8 mph - N/A   Clear
5:55 PM 75.2 °F 68.0 °F 78% 29.95 in 10.0 mi ESE 13.8 mph - N/A   Scattered Clouds
6:15 PM 75.2 °F 68.0 °F 78% 29.95 in 10.0 mi ESE 15.0 mph - N/A   Partly Cloudy
6:35 PM 75.2 °F 68.0 °F 78% 29.95 in 10.0 mi ESE 13.8 mph - N/A   Clear
6:55 PM 75.2 °F 68.0 °F 78% 29.94 in 10.0 mi ESE 13.8 mph - N/A   Clear
7:15 PM 75.2 °F 68.0 °F 78% 29.95 in 10.0 mi ESE 12.7 mph - N/A   Clear
7:35 PM 75.2 °F 68.0 °F 78% 29.94 in 10.0 mi ESE 13.8 mph - N/A   Clear
7:55 PM 75.2 °F 68.0 °F 78% 29.94 in 10.0 mi ESE 16.1 mph - N/A   Clear
8:15 PM 75.2 °F 68.0 °F 78% 29.95 in 10.0 mi SE 16.1 mph - N/A   Clear
8:35 PM 75.2 °F 68.0 °F 78% 29.95 in 10.0 mi SE 16.1 mph - N/A   Clear
8:55 PM 75.2 °F 68.0 °F 78% 29.95 in 10.0 mi SE 16.1 mph - N/A   Clear
9:15 PM 75.2 °F 68.0 °F 78% 29.96 in 10.0 mi SE 17.3 mph - N/A   Mostly Cloudy
9:35 PM 75.2 °F 68.0 °F 78% 29.96 in 10.0 mi SE 17.3 mph - N/A   Mostly Cloudy
10:15 PM 75.2 °F 68.0 °F 78% 29.96 in 10.0 mi SE 19.6 mph - N/A   Clear
10:35 PM 75.2 °F 68.0 °F 78% 29.96 in 10.0 mi SE 19.6 mph - N/A   Clear
10:55 PM 75.2 °F 68.0 °F 78% 29.96 in 10.0 mi SE 19.6 mph - N/A   Clear
11:15 PM 75.2 °F 68.0 °F 78% 29.96 in 10.0 mi SE 20.7 mph - N/A   Clear
11:35 PM 75.2 °F 68.0 °F 78% 29.96 in 10.0 mi SE 18.4 mph - N/A   Clear
11:55 PM 75.2 °F 68.0 °F 78% 29.97 in 10.0 mi SE 15.0 mph - N/A   Clear